Pagrindinis puslapis
METAR-TAF:

METAR-TAF

Oro uostai :

Hollister, Kalifornija, Jungtinės Amerikos Valstijos

platuma: 36-53-36N, ilguma: 121-24-37W, Aukštis: 70 m

Dabartinis oras

Ataskaita buvo paskelbta 43 minutes, ne 05:55 UTC
Vėjas 6 kt iš Pietų/Pietvakarių
Temperatūra 18°C
Drėgmė 64%
Slėgis 1011 hPa
Matomumas: 16.1 km
Giedras dangus

METAR: KCVH 170555Z AUTO 20006KT 10SM CLR 18/11 A2984 RMK A01

Laikas: 23:38 (06:38 UTC)


TAF: trūkstamas

Orai ataskaitas ir orų prognozės (METAR, TAF).

turimą stotys yra geltonos ir raudonos taškus žemėlapyje.

Perkelti pele per norėdami pamatyti stoties vardą.

Tada spustelėkite, norėdami matyti oro stebėjimo ir prognozės.

Norėdami pakeisti žemėlapį: spustelėkite ant žalios mygtukų su juodo kryžiaus žemyn,; žalią mygtuką su brūkšneliu, jei norite nutolinti; arba žalių rodyklių gretimoms žemėlapius.


METAR-TAF: